sat.trackr.live / text

‹ back to catalog

STARLINK-2648

NORAD 48679 · 2021-044AT

PAYLOAD ACTIVE UNKNOWN

§ Identity

Operator
Country
US
Launch date
2021-05-26
Launch site
AFETR
Launch vehicle
Mass (kg)
RCS (m²)

Purposes: comms

External: N2YO · Heavens-Above · Gunter

§ Orbital elements

Epoch: 2026-05-25T04:11:45.896064Z

Period
94.15 min
Inclination
53.1587°
Eccentricity
0.0001096
Mean motion
15.29485810 rev/d
Perigee alt
476.6 km
Apogee alt
478.1 km
Semi-major
6,855.5 km
B*
-2.0392e-3
RAAN
118.6082°
Arg perigee
93.5903°
Mean anomaly
266.5223°
Rev number
27,552

§ Raw data

STARLINK-26481 48679U 21044AT  26145.17483676 -.00058970  00000+0 -20392-2 0  99932 48679  53.1587 118.6082 0001096  93.5903 266.5223 15.29485810275526

JSON: /api/v1/satellites/48679 · /tle

For live sub-satellite position, see the globe view (requires WebGL).

§ Visibility from observer

Set your observer location to see the next 7 days of passes ≥ 10°. The values pass through the URL so the page stays shareable.

No JS? Fill the form by hand. The geolocation button needs JavaScript.